| time (UTC) | temp C | wind direction | speed KPH | gust KPH | rain 1hr cm | rain 24hr cm | rain mn cm | humidity % | barometer mb |
| 20260503175405 | 14 | 0.0 | 0.0 | 0.00 | 0.00 | 0.00 | 70 | 1015.3 | |
| 20260503172437 | 16 | 0.0 | 0.0 | 0.00 | 0.00 | 0.00 | 64 | 1015.4 | |
| 20260503172341 | 16 | 0.0 | 0.0 | 0.00 | 0.00 | 0.00 | 64 | 1015.4 | |
| 20260503081456 | 16 | 0.0 | 0.0 | 0.00 | 0.00 | 0.00 | 64 | 1018.1 | |
| 20260503054132 | 11 | 0.0 | 0.0 | 0.00 | 0.00 | 0.00 | 72 | 1018.0 | |
| 20260503052109 | 10 | 0.0 | 0.0 | 0.00 | 0.00 | 0.00 | 71 | 1017.8 | |
| 20260503051104 | 10 | 0.0 | 0.0 | 0.00 | 0.00 | 0.00 | 72 | 1017.9 | |
| 20260503045045 | 10 | 0.0 | 0.0 | 0.00 | 0.00 | 0.00 | 72 | 1017.9 | |
| 20260503043020 | 10 | 0.0 | 0.0 | 0.00 | 0.00 | 0.00 | 72 | 1017.8 | |
| 20260503042010 | 9 | 0.0 | 0.0 | 0.00 | 0.00 | 0.00 | 74 | 1017.8 | |
| 20260503032912 | 10 | 0.0 | 0.0 | 0.00 | 0.00 | 0.00 | 73 | 1018.1 | |
| 20260503031906 | 10 | 0.0 | 0.0 | 0.00 | 0.00 | 0.00 | 73 | 1018.2 | |
| 20260503024828 | 10 | 0.0 | 0.0 | 0.00 | 0.00 | 0.00 | 72 | 1018.2 | |
| 20260503021845 | 10 | 0.0 | 0.0 | 0.00 | 0.00 | 0.00 | 74 | 1018.5 | |
| 20260503021757 | 10 | 0.0 | 0.0 | 0.00 | 0.00 | 0.00 | 74 | 1018.5 | |
| 20260503012700 | 10 | 0.0 | 0.0 | 0.00 | 0.00 | 0.00 | 74 | 1018.7 | |
| 20260503004615 | 10 | 0.0 | 0.0 | 0.00 | 0.00 | 0.00 | 74 | 1018.8 | |
| 20260502233548 | 11 | 0.0 | 0.0 | 0.00 | 0.00 | 0.00 | 74 | 1019.5 | |
| 20260502232546 | 10 | 0.0 | 0.0 | 0.00 | 0.00 | 0.00 | 77 | 1019.6 | |
| 20260502231542 | 11 | 0.0 | 0.0 | 0.00 | 0.00 | 0.00 | 73 | 1019.7 | |
| 20260502230538 | 11 | 0.0 | 0.0 | 0.00 | 0.00 | 0.00 | 73 | 1019.8 | |
| 20260502225535 | 11 | 0.0 | 0.0 | 0.00 | 0.00 | 0.00 | 73 | 1019.8 | |
| 20260502224532 | 11 | 0.0 | 0.0 | 0.00 | 0.00 | 0.00 | 73 | 1019.9 | |
| 20260502223528 | 11 | 0.0 | 0.0 | 0.00 | 0.00 | 0.00 | 74 | 1019.8 | |
| 20260502222525 | 11 | 0.0 | 0.0 | 0.00 | 0.00 | 0.00 | 73 | 1019.8 | |
| 20260502214511 | 11 | 0.0 | 0.0 | 0.00 | 0.00 | 0.00 | 73 | 1019.9 | |
| 20260502213508 | 11 | 0.0 | 0.0 | 0.00 | 0.00 | 0.00 | 73 | 1019.8 | |
| 20260502212504 | 11 | 0.0 | 0.0 | 0.00 | 0.00 | 0.00 | 73 | 1019.8 | |
| 20260502211501 | 12 | 0.0 | 0.0 | 0.00 | 0.00 | 0.00 | 73 | 1019.8 | |
| 20260502205454 | 12 | 0.0 | 0.0 | 0.00 | 0.00 | 0.00 | 71 | 1019.9 | |
| 20260502204452 | 12 | 0.0 | 0.0 | 0.00 | 0.00 | 0.00 | 71 | 1019.9 | |
| 20260502203447 | 12 | 0.0 | 0.0 | 0.00 | 0.00 | 0.00 | 71 | 1019.9 | |
| 20260502202443 | 12 | 0.0 | 0.0 | 0.00 | 0.00 | 0.00 | 70 | 1019.9 | |
| 20260502195433 | 12 | 0.0 | 0.0 | 0.00 | 0.00 | 0.00 | 68 | 1020.0 | |
| 20260502194430 | 13 | 0.0 | 0.0 | 0.00 | 0.00 | 0.00 | 68 | 1019.9 | |
| 20260502193427 | 13 | 0.0 | 0.0 | 0.00 | 0.00 | 0.00 | 68 | 1019.8 | |
| 20260502191419 | 13 | 0.0 | 0.0 | 0.00 | 0.00 | 0.00 | 66 | 1019.5 | |
| 20260502185413 | 14 | 0.0 | 0.0 | 0.00 | 0.00 | 0.00 | 66 | 1019.3 |